Regional Weather Roundup
Issued by NWS Wakefield, VA

Home | Current Version | Previous Version | Text Only | Print | Product List | Glossary On
Versions: 1 2 3 4 5 6 7 8 9 10 11 12 13 14 15 16 17 18 19 20 21 22 23 24 25 26 27 28 29 30 31 32 33 34 35 36 37 38 39 40 41 42 43 44 45 46 47 48 49 50
000
ASUS41 KAKQ 051115
RWRAKQ

REGIONAL WEATHER ROUNDUP
NATIONAL WEATHER SERVICE WAKEFIELD VA
700 AM EDT SAT SEP 05 2015

Note: "fair" indicates few or no clouds below 12,000 feet with no
significant weather and/or obstructions to visibility. * = Denotes
station may not report precipitation (e.g., rain,snow,etc.),
thunder or fog.

VAZ042-051-052>054-056-051200-
NORTHERN VIRGINIA

CITY           SKY/WX    TMP DP  RH WIND       PRES   REMARKS
WASH NATIONAL  CLOUDY    73  70  88 NE13      30.21R
DULLES         MOCLDY    72  68  87 NE7       30.21R
FORT BELVOIR   CLOUDY    72  69  90 VRB2      30.20R
QUANTICO       PTCLDY    72  69  90 NE13      30.20R
FREDERICKSBRG* MOCLDY    71  71 100 NE5       30.18R
STAFFORD*      MOCLDY    70  68  92 CALM      30.23R FOG
WARRENTON      CLOUDY    71  71 100 CALM      30.20R FOG
CULPEPER*      CLOUDY    68  68  99 CALM      30.21R FOG
MANASSAS*      CLEAR     68  68 100 N3        30.20R
LEESBURG*      CLOUDY    72  72 100 N3        30.23R
WINCHESTER     CLOUDY    72  68  88 CALM      30.22R FOG
FRONT ROYAL*   CLOUDY    72  68  88 CALM      30.21R
LURAY*         CLOUDY    68  68 100 N3        30.22R FOG
$$

VAZ048-049-060>072-079>083-051200-
CENTRAL AND SOUTH CENTRAL VIRGINIA

CITY           SKY/WX    TMP DP  RH WIND       PRES   REMARKS
RICHMOND       MOCLDY    72  69  90 NE8       30.16R FOG
CHESTERFIELD*  CLOUDY    73  61  64 NE5       30.17R
PETERSBURG*    CLOUDY    73  73 100 N6        30.16R FOG
HANOVER        PTCLDY    70  69  97 VRB3      30.19R FOG
TAPPAHANNOCK*  PTCLDY    73  69  89 N3        30.18R FOG
QUINTON*       PTSUNNY   70  70  99 NE3       30.16R FOG
CHARLOTTSVILLE CLOUDY    72  69  90 NE7       30.20R FOG
GORDONSVILLE*  CLOUDY    71  70  98 NE5       30.19R FOG
ORANGE*        CLOUDY    72  70  94 N5        30.22R FOG
LOUISA*        CLOUDY    72  70  94 NE5       30.18R FOG
BUMPASS*       CLOUDY    69  68  98 CALM      30.18R
FARMVILLE*     FOG       70  70 100 N5        30.17R VSB 1/4
CREWE*         CLOUDY   N/A N/A N/A NE5       30.16R
FORT PICKETT*  CLOUDY    70  69  98 NE7       30.16R
CHASE CITY*    PTSUNNY   71  71 100 N3        30.16R
CLARKSVILLE*   CLOUDY    70  70 100 CALM      30.15R
SOUTH HILL*    CLOUDY    69  69 100 NE5       30.20S VSB 1
LAWRENCEVILLE* CLOUDY    70  70 100 N3        30.14R
EMPORIA*       CLOUDY    70  70 100 N5        30.15R FOG
$$

VAZ088>098-051200-
SOUTHEAST VIRGINIA

CITY           SKY/WX    TMP DP  RH WIND       PRES   REMARKS
NORFOLK        MOCLDY    75  71  87 NE12      30.09R
VIRGINIA BEACH MOCLDY    80  72  76 NE13      30.08R
NORFOLK NAVAL  LGT RAIN  76  72  87 E14G22    30.11R FOG
WEST POINT*    MOCLDY    75  72  89 N5        30.16R
SALUDA*        CLOUDY    75  72  88 NE7       30.14R
NEWPORT NEWS   CLOUDY    76  73  91 N12       30.11S
LANGLEY AFB    DRIZZLE   75  73  94 NE16      30.10S FOG
FORT EUSTIS    PTCLDY    75  75 100 N7        30.10R
WILLIAMSBURG*  CLEAR     75  73  94 N6        30.14R
HR EXEC AP*      N/A     75  70  83 N5        30.11S
FRANKLIN*      PTCLDY    71  71  99 N5        30.12R FOG
WAKEFIELD      CLEAR     73  70  90 N3        30.13R FOG
$$

VAZ020-022-025-037-045-051200-
WEST CENTRAL AND SOUTHWEST VIRGINIA

CITY           SKY/WX    TMP DP  RH WIND       PRES   REMARKS
STAUNTON*      CLOUDY    67  65  93 CALM      30.24R FOG
WAYNESBORO*    CLOUDY    68  67  95 CALM      30.24R
HOT SPRINGS VA HVY RAIN  65  65 100 E3        30.31R VSB<1/4
LYNCHBURG      MOCLDY    67  67 100 CALM      30.21R
DANVILLE       MOCLDY    69  66  90 NE3       30.17S FOG
SOUTH BOSTON*  CLOUDY    66  65  95 N5        30.17R
MARTINSVILLE   MOCLDY    66  66 100 CALM      30.21R FOG
ROANOKE        CLOUDY    67  67 100 CALM      30.23R FOG
BLACKSBURG     MOCLDY    61  61 100 CALM      30.27R FOG
DUBLIN*          N/A     64  64 100 CALM      30.25S FOG
MARION*        CLOUDY    64  62  93 CALM      30.28R FOG
HILLSVILLE*    CLOUDY    62  62 100 NE3       30.24S FOG
RICHLANDS*     FAIR      67  32  27 SE7G20    30.23R
WISE*          CLEAR     66  55  68 CALM      30.23R
ABINGDON*      CLEAR     68  62  81 E5        30.20R
$$

MDZ021>025-VAZ099-100-051200-
SOUTHERN MARYLAND AND THE DELMARVA PENINSULA

CITY           SKY/WX    TMP DP  RH WIND       PRES   REMARKS
PATUXENT RIVER CLOUDY    74  69  85 NE12      30.18R
BAY BRIDGE APT   N/A     72  66  83 E6        30.21R
LEONARDTOWN    NOT AVBL
DOVER          CLOUDY    72  68  88 NE10      30.19R
GEORGETOWN     CLEAR     72  67  84 NE9       30.19R
EASTON         MOCLDY    72  72 100 NE7       30.23R
CAMBRIDGE      PTCLDY    72  66  83 NE6       30.18R
SALISBURY      CLOUDY    72  69  90 NE8       30.17R
OCEAN CITY     PTCLDY    76  67  73 E15G24    30.16R
WALLOPS ISLAND PTCLDY    77  69  76 NE21      30.15R
ACCOMACK*      MOCLDY    73  54  49 NE14G21   30.12S
$$

NCZ012>017-030>032-051200-
NORTH CENTRAL AND EASTERN NORTH CAROLINA

CITY           SKY/WX    TMP DP  RH WIND       PRES   REMARKS
ROANOKE RAPIDS CLOUDY    70  70 100 N7        30.12R FOG
RALEIGH        MOCLDY    70  68  93 NE7       30.12R FOG
ELIZABETH CITY PTCLDY    74  72  93 NW8       30.07S
AHOSKIE*       CLOUDY    70  69  97 N5        30.11R FOG
EDENTON*       PTCLDY    70  68  95 N5        30.08R FOG
CURRITUCK*     MOCLDY    78  71  80 NE9       30.07S
KILL DEVIL HLS PTCLDY    78  74  87 NE8       30.04S
MANTEO         PTCLDY    77  74  90 NE9       30.05S
CAPE HATTERAS  MOCLDY    78  71  79 NE7G17    30.03R
TARBORO*       PTSUNNY   70  69  96 N3        30.11R FOG
GOLDSBORO      CLEAR     71  70  98 N8        30.07R
WASHINGTON     CLEAR     71  69  95 N5        30.08R FOG
GREENVILLE     LGT RAIN  70  70 100 N3        30.11R
NEW BERN       PTCLDY    74  71  91 N8        30.07R
WILMINGTON     MOCLDY    72  71  97 N7        30.05R FOG
$$

VAZ048-051200-
ELSEWHERE

CITY           SKY/WX    TMP DP  RH WIND       PRES   REMARKS
HARRISBURG PA  CLOUDY    71  64  78 E9        30.23R
BALTIMORE      CLOUDY    73  66  78 E15       30.21R
ANNAPOLIS      CLOUDY    74  69  85 NE7       30.21R
ANDREWS AFB    MOCLDY    72  68  88 NE9       30.20R
PHILADELPHIA   MOCLDY    72  62  71 E7        30.23S
HENDERSON NC   FOG       69  67  93 N5        30.14S VSB 1
GREENSBORO     PTCLDY    68  67  96 NE6       30.16R FOG
ROCKY MOUNT    CLOUDY    72  70  93 N9        30.11R FOG
$$

VAZ100-051200-
MARINE

STATION/POSITION TIME  TEMP    WIND        PRES    WAVE   SWELL
                       AIR SEA DIR/SP/G            HT/PER HT/PER
                 (UTC) (F)     (DEG/KT/KT) (MB)    (FT/S) (FT/S)
BRANDYWINE LGT   1000   74 76   80/ 18/ 19 1022.2R
CAPE MAY NJ      1000   73 80   70/  5/  8 1021.8R
LEWES DE         1000   74 77   80/ 15/ 17 1021.6R
15NM E FENWICK I 1050   76 79   40/ 19/ 23 1021.1R   7/ 8
OCEAN-CITY-INLET 1000   77 78   70/ 10/ 15 1020.3R
THOMAS POINT MD  1100   73 80   70/ 13/ 14 1023.3
GOOSES REEF MD   1100   76 80   80/ 16/ 19 1023.1
COVE POINT MD    1000   73      80/ 15/ 18 1022.2R
SOLOMONS ISLAND  1000      82                N/A
BISHOPS HEAD MD  1000   74 79   40/ 11/ 15 1020.2R
PINEY POINT MD   1005           60/  9/ 10   N/A
POTOMAC MD       1100   76 81   60/ 16/ 19 1020.1R   2/ 3
CAMBRIDGE MD     1000   74 82   30/ 10/ 13 1020.8R
LEWISETTA VA     1000   76 81   60/ 13/ 21 1020.4R
RAPPAHANNOCK LGT 1000           40/ 19/ 21 1020.1R
STINGRAY PT      1100   78 80   50/ 17/ 21 1020.5R   3/ 3
YORK RVR RNG VA  1000   78      40/ 20/ 23 1018.7R
YORKTOWN VA      1000   77 81   30/ 11/ 13 1019.2R
JAMESTOWN VA     1100   74 83  350/  6/  8   N/A
DOMINION TERM VA 1000   77      50/  3/  5 1019.0R
KIPTOPEKE VA     1000      80   60/  8/ 14   N/A
CHES BAY BRIDGE  1000   78 79   20/ 17/ 20 1018.2R
CAPE HENRY VA    1000   78      50/ 20/ 22   N/A
CHESAPEAKE LGHT  1000   78      50/ 23/ 26 1018.8R
WILLOUBY STN VA  1000   78      40/ 17/ 18 1019.9R
CAPE HENRY BUOY  1028      80                N/A     5/ 6
1ST LANDING BUOY 1100      78              1018.8R   3/ 4
CAPE CHARLES BUO 1026      80                N/A     5/ 6   2/ 9
OFFSHORE WE BUOY 1011      79                N/A     6/ 6   2/11
64NM E OF VA BCH 1050   79 80   60/ 19/ 23 1017.2R   5/ 6   2/12
DUCK PIER NC     1000   79 80   30/ 20/ 21 1016.6R
44100 DUCK FRF   1024      79                N/A     4/ 5
44056 DUCK FRF   1011      80                N/A     4/ 5
OREGON INLET NC  1000   78 81   20/  8/ 11 1017.0R
HATTERAS NC      1000   79 83   40/  9/ 16 1016.4R
DIAMOND SHLS NC  1050   78 84   30/ 14/ 17 1016.5R   4/ 6   2/ 7
CAPE LOOKOUT NC  1100   80      20/ 16/ 19 1016.5R
$$


USA.gov is the U.S. government's official web portal to all federal, state and local government web resources and services.